Wind_Speed
23 22 22 20 19 19 18 16 14 13 13 13 15 16 16 16 16 17 16 16 16 16 17 17 17 17 17 16 16 15 15 16 16 16 17 17 18 18 19 18 18 18
21 20 20 19 19 18 16 15 14 13 13 14 15 16 16 17 17 17 17 17 16 17 17 17 18 18 18 17 17 17 17 18 18 18 18 19 19 19 19 19 18 18
20 19 19 19 18 16 14 14 14 14 16 16 16 17 17 17 18 18 18 18 18 18 18 19 19 20 20 20 20 20 20 20 20 20 19 20 20 19 18 18 18 17
21 19 19 19 18 16 15 14 14 15 17 17 17 18 18 18 18 19 19 19 19 19 19 20 21 21 21 21 21 20 20 20 19 19 19 19 19 18 17 17 17 17
20 19 19 19 18 17 17 17 17 17 18 18 19 19 18 18 18 19 19 19 18 18 17 18 19 20 21 21 20 19 18 18 18 18 18 18 17 16 16 16 17 17
19 19 18 18 18 18 18 18 20 20 19 20 21 20 18 17 18 19 19 18 17 15 15 15 16 17 18 19 19 19 18 18 18 18 18 18 17 17 17 17 18 18
18 18 18 18 18 19 19 19 20 20 19 21 20 17 17 18 19 19 18 17 16 14 14 14 14 15 16 17 18 18 18 19 19 19 20 20 20 19 19 19 20 20
18 17 17 17 18 20 21 21 20 18 18 19 18 15 16 19 19 19 18 17 16 15 15 15 15 16 16 17 17 18 18 19 19 20 20 21 21 21 21 20 20 20
18 17 17 17 18 20 20 21 21 20 19 18 17 16 18 20 20 19 18 18 17 16 16 16 16 16 17 18 18 18 18 18 19 20 20 21 21 21 21 20 20 20
20 19 18 18 19 19 19 20 21 22 21 19 18 18 20 21 21 20 20 19 18 17 16 16 15 16 17 17 17 17 18 18 19 20 20 21 21 20 20 19 20 20
22 21 20 20 20 21 21 20 21 22 22 21 20 20 22 22 23 22 21 20 18 17 16 15 15 16 17 17 17 17 18 18 19 19 20 20 20 19 19 19 20 20
23 23 22 21 21 22 23 22 21 22 22 22 22 22 23 24 24 23 22 20 19 17 16 16 15 16 16 18 18 18 18 18 18 19 19 19 19 19 19 19 20 21
22 24 24 23 22 22 23 23 22 21 21 21 22 22 24 25 25 24 23 22 20 19 18 17 17 16 16 17 18 18 17 17 17 18 18 18 19 19 19 20 20 21
21 23 23 23 23 23 24 24 22 21 21 21 22 22 23 24 25 26 25 23 21 21 20 19 18 17 16 17 18 18 18 17 17 18 18 18 19 20 20 20 20 21
20 22 23 24 23 23 25 26 24 23 23 23 23 23 24 25 26 26 26 24 22 21 21 21 20 19 17 17 18 19 19 18 18 18 18 19 20 21 22 22 22 22
21 22 22 24 23 22 24 26 27 26 27 27 26 25 25 26 27 26 25 24 22 22 22 22 21 20 19 18 19 20 21 20 19 19 19 20 22 23 23 23 23 23
22 21 20 22 23 23 23 24 24 25 26 27 27 26 27 27 27 27 26 25 24 23 22 23 23 22 20 20 20 21 22 21 20 20 20 21 22 24 24 25 24 24
20 20 19 20 21 22 23 22 23 24 24 25 25 26 26 26 27 28 28 27 27 25 24 25 26 25 23 22 22 23 23 23 22 21 21 22 23 24 25 26 26 26
18 19 20 20 20 23 24 23 25 26 26 27 27 27 27 26 26 28 30 30 28 26 27 29 30 28 26 24 23 24 24 24 23 22 22 22 24 25 26 27 28 28
19 18 20 21 21 23 24 24 27 29 28 28 29 30 30 28 25 25 27 29 30 29 31 33 32 29 27 25 24 24 24 24 24 24 24 24 26 27 28 29 29 30
22 21 21 21 22 23 23 25 27 26 23 20 18 18 20 21 21 21 22 25 28 28 28 29 29 28 26 26 25 25 25 25 24 24 24 25 26 27 28 29 30 31
20 20 21 21 22 22 22 22 21 19 16 13 12 11 13 15 18 20 20 21 22 23 23 25 26 26 26 25 25 25 25 24 24 24 25 25 26 27 28 28 29 31
18 19 20 21 22 22 22 22 21 20 19 16 14 14 14 15 17 18 19 20 21 22 23 23 24 23 23 24 24 25 25 25 26 26 26 27 27 28 29 30 32 33
17 18 19 21 22 23 23 23 23 22 20 18 17 17 17 18 19 19 20 21 21 22 23 23 23 23 24 25 27 28 28 28 28 28 28 29 30 31 33 35 36 37
19 20 21 22 23 23 23 23 23 22 20 19 19 19 20 20 21 21 22 23 24 25 25 25 26 26 27 28 29 30 30 30 30 31 32 33 34 36 37 38 39 39
22 23 23 24 24 25 25 25 25 24 23 22 21 21 22 23 23 24 25 26 27 28 28 29 30 30 31 32 33 34 35 35 35 36 36 36 37 38 39 40 41 41
Wind_Direction
238 240 244 247 246 245 246 247 245 243 241 241 241 240 238 236 235 236 239 243 247 248 246 244 242 240 240 242 245 250 254 256 257 257 258 259 260 262 262 262 261 262
238 240 244 247 246 245 249 246 239 233 230 232 235 236 234 232 232 234 238 244 246 245 242 239 239 239 240 244 248 253 256 257 258 257 257 258 258 259 260 260 260 261
235 240 245 245 241 244 248 240 230 228 226 226 229 233 233 232 232 233 237 242 243 241 240 240 241 242 245 248 250 252 252 253 253 254 254 254 255 256 259 261 264 265
230 237 244 245 243 242 240 232 228 229 228 228 230 232 233 233 233 233 235 238 238 238 240 243 244 245 246 247 247 247 249 250 251 252 253 254 255 257 261 265 268 268
231 236 241 244 242 236 233 235 235 233 232 233 233 233 236 236 233 232 233 234 234 235 239 243 246 246 245 244 245 247 250 251 250 250 252 254 256 260 266 270 272 272
229 231 235 237 233 227 228 236 237 235 236 237 235 235 237 234 230 230 231 233 235 236 239 244 248 250 248 247 248 250 252 252 251 250 251 253 257 262 268 274 277 276
223 222 225 225 222 222 228 233 232 234 238 237 234 232 230 229 230 231 232 235 238 239 242 247 249 250 250 249 249 249 249 249 249 250 250 253 258 262 267 272 275 275
221 217 217 216 215 220 227 229 229 234 239 237 235 231 228 231 233 234 234 236 239 242 246 249 249 249 249 247 246 246 246 246 247 248 250 253 257 260 264 267 270 271
222 221 220 217 215 217 221 222 224 232 239 239 234 229 231 234 235 236 235 236 239 245 249 250 249 250 249 245 244 243 244 245 246 248 250 252 255 257 260 262 263 265
228 228 226 222 220 218 216 215 219 226 233 233 228 226 229 233 235 236 236 237 241 247 248 246 246 248 247 244 243 243 244 246 246 249 251 253 254 255 256 259 260 260
231 232 231 230 227 224 220 217 217 222 226 228 227 227 230 233 234 235 236 240 244 245 244 242 243 248 249 248 246 245 247 249 250 252 253 254 254 254 256 258 259 259
232 233 235 236 233 229 226 224 223 225 227 228 229 232 233 234 235 235 238 243 246 245 244 244 244 248 254 255 252 248 248 250 252 253 254 254 254 254 255 257 257 258
233 233 234 235 235 232 228 226 225 226 228 229 232 235 237 237 238 239 241 244 246 245 245 246 246 249 257 262 258 252 248 248 248 249 251 252 254 256 257 257 256 256
234 233 232 233 236 233 228 225 224 225 231 233 235 238 239 239 240 242 244 245 244 244 244 245 246 250 257 263 261 254 247 245 245 246 249 253 257 259 259 258 257 256
234 233 230 230 234 232 228 227 228 233 239 240 240 241 241 240 240 242 246 248 245 242 242 244 247 251 257 261 261 254 246 242 242 244 249 254 258 259 258 257 256 255
231 232 230 229 233 237 236 235 237 241 245 244 242 241 240 240 241 242 245 249 249 246 244 246 249 253 257 259 257 253 245 239 237 240 246 252 256 258 258 256 255 255
229 232 235 235 236 241 243 242 242 244 245 245 244 244 244 243 244 244 245 249 252 252 250 250 252 255 258 257 253 249 245 239 234 234 239 247 253 257 258 257 257 256
230 231 236 237 235 239 243 246 247 246 246 247 249 248 245 244 245 246 246 248 250 253 254 254 254 255 257 255 250 247 244 240 235 233 234 240 247 253 255 256 256 255
229 228 234 234 229 232 238 242 244 244 246 249 251 251 247 244 245 246 246 245 243 248 253 253 252 253 252 251 249 246 242 240 238 237 236 238 242 246 250 252 253 253
232 232 235 234 232 233 234 236 240 245 247 248 252 255 252 246 243 242 242 236 231 236 245 247 247 247 246 246 246 243 241 241 240 239 238 238 239 242 245 248 250 251
238 239 240 238 238 238 236 235 238 241 241 241 247 251 244 236 235 238 239 234 231 236 242 242 240 240 240 242 241 240 241 243 244 244 244 244 243 244 245 247 250 252
239 240 240 238 236 236 239 240 240 239 243 246 246 239 231 230 236 241 242 240 239 242 242 240 240 241 242 243 242 243 246 248 249 250 251 251 250 250 251 254 256 258
237 238 238 237 236 238 244 248 251 254 259 257 249 242 240 240 242 244 246 247 246 245 245 245 246 247 248 249 249 252 253 253 253 253 253 255 257 259 261 264 266 266
237 239 239 239 239 242 245 248 252 256 258 256 251 248 247 245 245 246 246 247 247 246 246 248 249 251 252 253 255 256 256 256 256 257 259 262 265 267 269 271 271 271
239 239 239 240 241 242 244 247 249 251 252 253 252 251 251 250 249 248 248 248 249 249 250 251 253 254 255 256 257 258 258 259 260 262 265 267 269 271 272 273 273 272
241 241 241 240 241 243 245 247 249 250 251 252 252 253 254 254 253 252 253 253 254 255 255 256 257 258 259 259 259 260 260 262 264 266 267 269 270 270 270 269 269 268
Height
5775 5776 5776 5778 5779 5780 5781 5782 5783 5784 5785 5786 5787 5788 5789 5790 5791 5792 5793 5793 5794 5794 5795 5796 5796 5796 5797 5797 5798 5798 5798 5799 5799 5799 5799 5800 5801 5801 5802 5803 5803 5803
5773 5774 5775 5777 5778 5778 5779 5780 5781 5782 5783 5784 5785 5786 5787 5789 5789 5790 5791 5791 5792 5793 5793 5794 5794 5795 5795 5795 5796 5796 5797 5797 5797 5798 5798 5798 5799 5799 5800 5801 5801 5801
5772 5773 5774 5775 5776 5777 5778 5779 5779 5780 5782 5783 5784 5785 5786 5787 5788 5789 5789 5790 5790 5791 5791 5792 5792 5793 5793 5793 5794 5794 5795 5795 5795 5796 5796 5797 5797 5798 5798 5799 5799 5799
5770 5771 5772 5773 5774 5775 5776 5777 5778 5779 5780 5781 5782 5783 5784 5785 5786 5787 5787 5788 5789 5789 5790 5790 5790 5791 5791 5791 5792 5792 5793 5793 5794 5794 5794 5795 5795 5796 5796 5796 5797 5797
5768 5769 5770 5771 5772 5772 5773 5774 5776 5777 5779 5780 5780 5780 5781 5782 5783 5784 5785 5786 5787 5788 5788 5788 5789 5789 5789 5790 5790 5791 5791 5791 5792 5792 5792 5793 5793 5794 5794 5794 5795 5795
5765 5766 5767 5768 5769 5770 5770 5771 5773 5775 5777 5778 5778 5779 5779 5780 5781 5782 5783 5784 5785 5786 5787 5787 5787 5787 5787 5788 5788 5789 5789 5790 5790 5790 5790 5791 5791 5792 5792 5792 5792 5793
5763 5764 5765 5765 5766 5767 5768 5769 5771 5773 5774 5775 5776 5777 5777 5778 5779 5780 5781 5782 5783 5784 5784 5785 5785 5785 5786 5786 5786 5787 5787 5787 5788 5788 5788 5789 5789 5790 5790 5790 5790 5791
5761 5762 5762 5763 5764 5765 5766 5767 5769 5770 5771 5773 5774 5775 5776 5776 5777 5778 5779 5780 5781 5782 5782 5783 5783 5783 5783 5784 5784 5784 5785 5785 5785 5786 5786 5787 5787 5787 5788 5788 5788 5788
5759 5759 5760 5761 5762 5763 5764 5765 5766 5768 5769 5770 5772 5773 5774 5774 5775 5776 5777 5778 5779 5779 5780 5780 5781 5781 5781 5781 5782 5782 5782 5783 5783 5783 5784 5784 5784 5785 5785 5785 5785 5786
5757 5757 5758 5759 5760 5761 5762 5763 5764 5766 5767 5768 5769 5770 5771 5772 5773 5774 5775 5775 5776 5777 5778 5778 5778 5779 5779 5779 5779 5780 5780 5780 5780 5781 5781 5782 5782 5782 5783 5783 5783 5783
5754 5755 5756 5757 5758 5759 5760 5761 5762 5764 5765 5765 5766 5768 5769 5769 5771 5772 5773 5773 5774 5775 5776 5776 5776 5777 5777 5777 5777 5777 5777 5778 5778 5778 5779 5779 5780 5780 5780 5780 5780 5781
5752 5753 5754 5755 5755 5757 5758 5759 5761 5762 5762 5763 5764 5766 5767 5768 5769 5770 5771 5771 5772 5773 5774 5774 5774 5775 5775 5775 5775 5775 5775 5775 5776 5776 5777 5777 5777 5778 5778 5778 5778 5778
5750 5751 5751 5752 5753 5754 5755 5756 5758 5759 5761 5761 5762 5764 5765 5766 5767 5768 5769 5769 5770 5771 5771 5771 5772 5772 5772 5773 5773 5773 5773 5773 5774 5774 5774 5775 5775 5775 5775 5776 5776 5776
5747 5747 5748 5749 5750 5751 5753 5754 5755 5757 5758 5759 5761 5762 5762 5763 5764 5765 5766 5767 5768 5768 5768 5769 5769 5769 5770 5770 5770 5770 5770 5771 5771 5771 5772 5773 5773 5773 5773 5773 5773 5774
5743 5743 5744 5745 5747 5748 5750 5751 5753 5754 5755 5757 5758 5759 5760 5760 5761 5762 5763 5764 5765 5765 5766 5766 5766 5767 5767 5767 5768 5768 5768 5768 5768 5769 5769 5770 5770 5771 5771 5771 5771 5771
5740 5741 5742 5743 5745 5746 5748 5749 5750 5751 5752 5753 5755 5756 5757 5757 5758 5759 5760 5761 5762 5762 5763 5763 5764 5764 5764 5765 5765 5766 5766 5765 5765 5766 5767 5767 5768 5768 5768 5768 5768 5769
5739 5740 5741 5742 5743 5745 5746 5747 5748 5748 5749 5750 5751 5752 5753 5754 5755 5756 5757 5758 5758 5759 5760 5761 5761 5761 5762 5762 5762 5763 5763 5763 5763 5763 5764 5764 5765 5765 5765 5766 5766 5766
5738 5739 5740 5741 5742 5743 5743 5744 5745 5745 5745 5746 5748 5749 5750 5751 5752 5753 5754 5755 5756 5756 5757 5757 5758 5758 5759 5759 5759 5760 5760 5760 5760 5760 5761 5761 5762 5762 5763 5763 5764 5764
5736 5737 5738 5738 5740 5741 5741 5741 5741 5741 5742 5743 5744 5746 5747 5748 5749 5749 5750 5751 5752 5753 5754 5754 5754 5755 5755 5756 5756 5757 5757 5757 5757 5757 5758 5758 5759 5760 5760 5761 5761 5761
5734 5735 5735 5736 5737 5738 5739 5739 5739 5739 5740 5741 5741 5741 5742 5744 5745 5746 5746 5747 5748 5749 5749 5749 5750 5751 5752 5753 5753 5754 5754 5754 5754 5755 5755 5755 5756 5757 5757 5757 5757 5757
5731 5732 5733 5734 5735 5735 5736 5737 5737 5736 5737 5738 5738 5738 5738 5740 5742 5743 5743 5744 5744 5745 5746 5746 5747 5748 5749 5749 5750 5751 5751 5751 5752 5752 5752 5752 5753 5753 5754 5754 5754 5754
5729 5729 5730 5731 5732 5733 5734 5734 5734 5734 5735 5735 5736 5736 5737 5738 5740 5741 5741 5741 5742 5743 5743 5744 5744 5745 5746 5746 5747 5747 5748 5748 5748 5748 5748 5749 5749 5750 5750 5750 5750 5750
5726 5727 5728 5729 5730 5731 5731 5731 5731 5732 5732 5733 5734 5734 5735 5736 5737 5738 5739 5739 5739 5740 5741 5741 5742 5742 5743 5744 5744 5744 5745 5745 5745 5745 5745 5745 5745 5746 5746 5746 5746 5745
5724 5725 5726 5727 5727 5728 5728 5729 5729 5730 5730 5731 5732 5732 5733 5734 5734 5735 5736 5736 5737 5737 5738 5738 5739 5739 5740 5740 5741 5741 5741 5741 5741 5741 5741 5741 5741 5741 5741 5741 5741 5740
5722 5722 5723 5724 5725 5725 5726 5726 5727 5727 5728 5729 5729 5730 5730 5731 5732 5732 5733 5733 5734 5735 5735 5735 5735 5736 5736 5737 5737 5737 5737 5737 5737 5737 5737 5737 5737 5736 5736 5736 5736 5735
5719 5719 5720 5721 5721 5722 5723 5723 5724 5724 5725 5726 5726 5727 5728 5728 5729 5729 5729 5730 5731 5731 5731 5731 5731 5732 5732 5733 5733 5733 5733 5733 5733 5733 5733 5733 5732 5732 5731 5730 5729 5730